^^
Datos históricos de la estación: Murcia-Puente Tocinos
Diario Informe para Julio 5, 2019 Unidades:  Métrico    Inglés   Ambas
Diario Semanal Mensual Anual Configurable
  Máximo: Mínimo: Media:
Temperatura: 32.9 °C 23.4 °C 27.6 °C
Punto de rocio: 21.8 °C 18.6 °C 20.1 °C
Humedad: 84% 43% 65%
Velocidad viento: 20.9km/h 1.6km/h 8.4km/h
Racha viento: 35.4km/h - -
Viento- - SE
Presión: 1015.5 hPa 1011.2 hPa -
Precipitación: 0.0 mm    
Historical Graphs
 
 
Tabla de datos para Julio 5, 2019
Hora Temperatura Punto de rocio Presión Viento Velocidad viento Racha viento Humedad Intensidad lluvia(por hora) Nubes
00:00 25.2 °C 21.5 °C 1015.4 hPa NE 8.0 km/h 9.7 km/h 80% 0.0 mm CLR
00:05 25.2 °C 21.5 °C 1015.5 hPa NE 8.0 km/h 9.7 km/h 80% 0.0 mm CLR
00:10 25.1 °C 21.4 °C 1015.5 hPa ENE 5.8 km/h 7.6 km/h 80% 0.0 mm CLR
00:15 25.1 °C 21.4 °C 1015.5 hPa NE 4.8 km/h 8.0 km/h 80% 0.0 mm CLR
00:20 25.1 °C 21.4 °C 1015.4 hPa NE 3.2 km/h 8.0 km/h 80% 0.0 mm CLR
00:25 25.1 °C 21.4 °C 1015.4 hPa NNE 4.7 km/h 5.6 km/h 80% 0.0 mm CLR
00:30 25.2 °C 21.5 °C 1015.4 hPa NNW 4.7 km/h 5.6 km/h 80% 0.0 mm CLR
00:35 25.2 °C 21.5 °C 1015.3 hPa North 3.2 km/h 6.4 km/h 80% 0.0 mm CLR
00:40 25.2 °C 21.5 °C 1015.3 hPa NNE 2.9 km/h 5.6 km/h 80% 0.0 mm CLR
00:45 25.2 °C 21.5 °C 1015.3 hPa NE 3.2 km/h 8.0 km/h 80% 0.0 mm CLR
00:50 25.1 °C 21.6 °C 1015.4 hPa ENE 4.7 km/h 7.4 km/h 81% 0.0 mm CLR
00:55 25.0 °C 21.7 °C 1015.4 hPa NE 3.2 km/h 9.7 km/h 82% 0.0 mm CLR
01:00 25.0 °C 21.7 °C 1015.4 hPa North 4.8 km/h 8.0 km/h 82% 0.0 mm CLR
01:05 24.9 °C 21.6 °C 1015.1 hPa NNW 4.8 km/h 8.0 km/h 82% 0.0 mm CLR
01:10 24.9 °C 21.6 °C 1015.1 hPa North 4.7 km/h 3.7 km/h 82% 0.0 mm CLR
01:15 24.9 °C 21.6 °C 1015.1 hPa NNW 3.2 km/h 9.7 km/h 82% 0.0 mm CLR
01:20 24.9 °C 21.8 °C 1015.0 hPa NNE 4.7 km/h 11.1 km/h 83% 0.0 mm CLR
01:25 24.8 °C 21.7 °C 1015.0 hPa North 3.2 km/h 11.3 km/h 83% 0.0 mm CLR
01:30 24.8 °C 21.7 °C 1015.0 hPa NNE 4.8 km/h 8.0 km/h 83% 0.0 mm CLR
01:35 24.7 °C 21.8 °C 1014.9 hPa NNE 4.8 km/h 8.0 km/h 84% 0.0 mm CLR
01:40 24.7 °C 21.8 °C 1014.9 hPa NNE 5.0 km/h 3.7 km/h 84% 0.0 mm CLR
01:45 24.7 °C 21.8 °C 1014.9 hPa NNE 4.8 km/h 8.0 km/h 84% 0.0 mm CLR
01:50 24.6 °C 21.7 °C 1014.9 hPa NNE 3.2 km/h 8.0 km/h 84% 0.0 mm CLR
01:55 24.6 °C 21.7 °C 1014.9 hPa NNE 3.2 km/h 4.8 km/h 84% 0.0 mm CLR
02:00 24.6 °C 21.7 °C 1014.9 hPa North 3.2 km/h 11.3 km/h 84% 0.0 mm CLR
02:05 24.6 °C 21.7 °C 1014.7 hPa NW 3.2 km/h 11.3 km/h 84% 0.0 mm CLR
02:10 24.5 °C 21.6 °C 1014.7 hPa WNW 8.0 km/h 12.9 km/h 84% 0.0 mm CLR
02:15 24.4 °C 21.5 °C 1014.7 hPa WNW 8.0 km/h 8.0 km/h 84% 0.0 mm CLR
02:20 24.4 °C 21.5 °C 1014.6 hPa NW 3.2 km/h 9.7 km/h 84% 0.0 mm CLR
02:25 24.4 °C 21.5 °C 1014.6 hPa NNE 4.7 km/h 9.3 km/h 84% 0.0 mm CLR
02:30 24.4 °C 21.3 °C 1014.6 hPa NNW 5.8 km/h 3.9 km/h 83% 0.0 mm CLR
02:35 24.4 °C 21.3 °C 1014.5 hPa NW 4.8 km/h 8.0 km/h 83% 0.0 mm CLR
02:40 24.3 °C 21.2 °C 1014.5 hPa NW 4.7 km/h 9.3 km/h 83% 0.0 mm CLR
02:45 24.3 °C 21.2 °C 1014.5 hPa WNW 3.2 km/h 9.7 km/h 83% 0.0 mm CLR
02:50 24.4 °C 21.1 °C 1014.4 hPa WNW 3.2 km/h 8.0 km/h 82% 0.0 mm CLR
02:55 24.4 °C 21.1 °C 1014.4 hPa WNW 3.2 km/h 8.0 km/h 82% 0.0 mm CLR
03:00 24.4 °C 21.1 °C 1014.4 hPa West 3.2 km/h 9.7 km/h 82% 0.0 mm CLR
03:05 24.4 °C 21.1 °C 1014.5 hPa SW 3.2 km/h 9.7 km/h 82% 0.0 mm CLR
03:10 24.4 °C 21.1 °C 1014.5 hPa WSW 4.7 km/h 3.7 km/h 82% 0.0 mm CLR
03:15 24.5 °C 21.0 °C 1014.5 hPa West 3.2 km/h 9.7 km/h 81% 0.0 mm CLR
03:20 24.5 °C 21.0 °C 1014.1 hPa NW 4.7 km/h   81% 0.0 mm CLR
03:25 24.5 °C 21.0 °C 1014.1 hPa WNW 3.2 km/h 8.0 km/h 81% 0.0 mm CLR
03:30 24.4 °C 20.9 °C 1014.1 hPa WNW 3.9 km/h 9.3 km/h 81% 0.0 mm CLR
03:35 24.4 °C 21.1 °C 1013.9 hPa WNW 3.2 km/h 11.3 km/h 82% 0.0 mm CLR
03:40 24.3 °C 21.1 °C 1013.9 hPa West 6.4 km/h 11.1 km/h 82% 0.0 mm CLR
03:45 24.3 °C 21.0 °C 1013.9 hPa West 8.0 km/h 11.3 km/h 82% 0.0 mm CLR
03:50 24.2 °C 20.9 °C 1014.0 hPa West 6.4 km/h 6.9 km/h 82% 0.0 mm CLR
03:55 24.2 °C 21.1 °C 1014.0 hPa WNW 8.0 km/h 9.7 km/h 83% 0.0 mm CLR
04:00 24.2 °C 21.1 °C 1014.0 hPa WNW 3.2 km/h 8.0 km/h 83% 0.0 mm CLR
04:05 24.2 °C 21.1 °C 1014.5 hPa WSW 3.2 km/h 9.7 km/h 83% 0.0 mm CLR
04:10 24.2 °C 20.9 °C 1014.5 hPa SW 5.8 km/h 7.4 km/h 82% 0.0 mm CLR
04:15 24.2 °C 20.9 °C 1014.5 hPa WSW 4.8 km/h 8.0 km/h 82% 0.0 mm CLR
04:20 24.2 °C 20.9 °C 1014.1 hPa West 3.2 km/h 4.7 km/h 82% 0.0 mm CLR
04:25 24.2 °C 20.7 °C 1014.1 hPa West 3.2 km/h 8.0 km/h 81% 0.0 mm CLR
04:30 24.2 °C 20.7 °C 1014.1 hPa SW 4.7 km/h   81% 0.0 mm CLR
04:35 24.2 °C 20.7 °C 1013.9 hPa WSW 3.2 km/h 6.4 km/h 81% 0.0 mm CLR
04:40 24.3 °C 20.8 °C 1013.9 hPa West 1.6 km/h 4.8 km/h 81% 0.0 mm CLR
04:45 24.3 °C 20.8 °C 1013.9 hPa NW 1.6 km/h 6.4 km/h 81% 0.0 mm CLR
04:50 24.2 °C 20.7 °C 1014.0 hPa West 2.9 km/h 5.6 km/h 81% 0.0 mm CLR
04:55 24.2 °C 20.7 °C 1014.0 hPa WSW 3.2 km/h 9.7 km/h 81% 0.0 mm CLR
05:00 24.1 °C 20.6 °C 1014.0 hPa WSW 4.8 km/h 11.3 km/h 81% 0.0 mm CLR
05:05 24.1 °C 20.6 °C 1013.9 hPa SW 4.8 km/h 9.7 km/h 81% 0.0 mm CLR
05:10 24.1 °C 20.6 °C 1013.9 hPa WSW 5.8 km/h 5.6 km/h 81% 0.0 mm CLR
05:15 24.1 °C 20.6 °C 1013.9 hPa SW 4.8 km/h 8.0 km/h 81% 0.0 mm CLR
05:20 24.0 °C 20.3 °C 1013.9 hPa SSW 4.8 km/h 9.7 km/h 80% 0.0 mm CLR
05:25 23.9 °C 20.2 °C 1013.9 hPa South 4.8 km/h 11.3 km/h 80% 0.0 mm CLR
05:30 23.9 °C 20.2 °C 1013.9 hPa SSE 6.9 km/h 7.4 km/h 80% 0.0 mm CLR
05:35 23.8 °C 20.2 °C 1013.7 hPa South 8.0 km/h 8.0 km/h 80% 0.0 mm CLR
05:40 23.8 °C 20.2 °C 1013.7 hPa SSE 5.0 km/h 9.3 km/h 80% 0.0 mm CLR
05:45 23.8 °C 20.2 °C 1013.7 hPa SSE 4.8 km/h 9.7 km/h 80% 0.0 mm CLR
05:50 23.8 °C 20.2 °C 1014.1 hPa South 3.2 km/h 9.7 km/h 80% 0.0 mm CLR
05:55 23.8 °C 20.2 °C 1014.1 hPa South 3.2 km/h 8.0 km/h 80% 0.0 mm CLR
06:00 23.8 °C 19.9 °C 1014.1 hPa SSW 3.2 km/h 4.8 km/h 79% 0.0 mm CLR
06:05 23.8 °C 19.9 °C 1014.1 hPa SSW 3.2 km/h 8.0 km/h 79% 0.0 mm CLR
06:10 23.8 °C 19.9 °C 1014.1 hPa SSW 2.9 km/h   79% 0.0 mm CLR
06:15 23.8 °C 19.9 °C 1014.1 hPa SW 3.2 km/h 9.7 km/h 79% 0.0 mm CLR
06:20 23.9 °C 19.8 °C 1014.2 hPa SW 4.7 km/h 11.1 km/h 78% 0.0 mm CLR
06:25 23.9 °C 19.8 °C 1014.2 hPa SW 3.2 km/h 11.3 km/h 78% 0.0 mm CLR
06:30 23.9 °C 19.8 °C 1014.2 hPa WNW 5.8 km/h 7.4 km/h 78% 0.0 mm CLR
06:35 23.8 °C 19.7 °C 1014.3 hPa West 4.8 km/h 9.7 km/h 78% 0.0 mm CLR
06:40 23.7 °C 19.6 °C 1014.3 hPa West 4.8 km/h 9.7 km/h 78% 0.0 mm CLR
06:45 23.6 °C 19.6 °C 1014.3 hPa WNW 4.8 km/h 4.8 km/h 78% 0.0 mm CLR
06:50 23.6 °C 19.6 °C 1014.5 hPa WNW 1.6 km/h 8.0 km/h 78% 0.0 mm CLR
06:55 23.5 °C 19.4 °C 1014.5 hPa WNW 1.6 km/h 8.0 km/h 78% 0.0 mm CLR
07:00 23.5 °C 19.4 °C 1014.5 hPa West 3.2 km/h 6.4 km/h 78% 0.0 mm CLR
07:05 23.6 °C 19.6 °C 1014.9 hPa South 3.9 km/h 9.3 km/h 78% 0.0 mm CLR
07:10 23.6 °C 19.6 °C 1014.9 hPa SSE 5.8 km/h 11.1 km/h 78% 0.0 mm CLR
07:15 23.5 °C 19.7 °C 1014.9 hPa South 4.8 km/h 11.3 km/h 79% 0.0 mm CLR
07:20 23.4 °C 19.6 °C 1014.8 hPa South 5.0 km/h 7.4 km/h 79% 0.0 mm CLR
07:25 23.4 °C 19.6 °C 1014.8 hPa South 4.8 km/h 8.0 km/h 79% 0.0 mm CLR
07:30 23.4 °C 19.6 °C 1014.8 hPa South 3.2 km/h 3.7 km/h 79% 0.0 mm CLR
07:35 23.5 °C 19.4 °C 1015.0 hPa SSW 3.2 km/h 7.4 km/h 78% 0.0 mm CLR
07:40 23.5 °C 19.4 °C 1015.0 hPa West 4.7 km/h 7.4 km/h 78% 0.0 mm CLR
07:45 23.6 °C 19.6 °C 1015.0 hPa WNW 3.2 km/h 8.0 km/h 78% 0.0 mm CLR
07:50 23.7 °C 19.6 °C 1015.0 hPa NW 3.2 km/h 1.9 km/h 78% 0.0 mm CLR
07:55 23.8 °C 19.5 °C 1015.0 hPa NW 3.2 km/h 8.0 km/h 77% 0.0 mm CLR
08:00 23.8 °C 19.5 °C 1015.0 hPa NW 3.2 km/h 8.0 km/h 77% 0.0 mm CLR
08:05 23.9 °C 19.4 °C 1014.9 hPa NW 3.2 km/h 8.0 km/h 76% 0.0 mm CLR
08:10 23.9 °C 19.2 °C 1014.9 hPa NW 3.2 km/h 8.0 km/h 75% 0.0 mm CLR
08:15 24.0 °C 19.3 °C 1014.9 hPa WNW 3.2 km/h 4.8 km/h 75% 0.0 mm CLR
08:20 24.1 °C 19.2 °C 1015.2 hPa WNW 3.2 km/h 8.0 km/h 74% 0.0 mm CLR
08:25 24.2 °C 19.3 °C 1015.2 hPa WNW 3.2 km/h 8.0 km/h 74% 0.0 mm CLR
08:30 24.2 °C 19.3 °C 1015.2 hPa WNW 3.9 km/h 5.6 km/h 74% 0.0 mm CLR
08:35 24.2 °C 19.1 °C 1015.0 hPa WNW 3.9 km/h 7.4 km/h 73% 0.0 mm CLR
08:40 24.2 °C 19.1 °C 1015.0 hPa West 4.7 km/h 9.3 km/h 73% 0.0 mm CLR
08:45 24.3 °C 19.2 °C 1015.0 hPa WNW 3.2 km/h 9.7 km/h 73% 0.0 mm CLR
08:50 24.4 °C 19.2 °C 1015.1 hPa West 3.9 km/h 3.7 km/h 73% 0.0 mm CLR
08:55 24.5 °C 19.3 °C 1015.1 hPa West 3.2 km/h 8.0 km/h 73% 0.0 mm CLR
09:00 24.6 °C 19.4 °C 1015.1 hPa WNW 3.2 km/h 8.0 km/h 73% 0.0 mm CLR
09:05 24.7 °C 19.3 °C 1015.1 hPa NW 3.2 km/h 8.0 km/h 72% 0.0 mm CLR
09:10 24.8 °C 19.4 °C 1015.1 hPa NW 3.9 km/h   72% 0.0 mm CLR
09:15 24.9 °C 19.3 °C 1015.1 hPa NW 3.2 km/h 3.2 km/h 71% 0.0 mm CLR
09:20 25.1 °C 19.4 °C 1015.2 hPa SSE 2.3 km/h 3.9 km/h 71% 0.0 mm CLR
09:25 25.2 °C 19.3 °C 1015.2 hPa SW 1.6 km/h 8.0 km/h 70% 0.0 mm CLR
09:30 25.4 °C 19.6 °C 1015.2 hPa NW 3.2 km/h 5.6 km/h 70% 0.0 mm CLR
09:35 25.5 °C 19.4 °C 1015.3 hPa SSW 3.2 km/h 11.3 km/h 69% 0.0 mm CLR
09:40 25.4 °C 19.3 °C 1015.3 hPa SW 6.4 km/h 11.1 km/h 69% 0.0 mm CLR
09:45 25.4 °C 19.3 °C 1015.3 hPa South 8.0 km/h 11.3 km/h 69% 0.0 mm CLR
09:50 25.6 °C 19.4 °C 1015.1 hPa South 8.0 km/h 11.3 km/h 69% 0.0 mm CLR
09:55 25.7 °C 19.6 °C 1015.1 hPa South 8.0 km/h 11.3 km/h 69% 0.0 mm CLR
10:00 25.6 °C 19.5 °C 1015.1 hPa South 8.0 km/h 9.7 km/h 69% 0.0 mm CLR
10:05 25.8 °C 19.7 °C 1015.0 hPa SE 8.0 km/h 8.0 km/h 69% 0.0 mm CLR
10:10 26.1 °C 19.7 °C 1015.0 hPa SSE 3.2 km/h 12.9 km/h 68% 0.0 mm CLR
10:15 26.1 °C 19.7 °C 1015.0 hPa WSW 3.2 km/h 11.3 km/h 68% 0.0 mm CLR
10:20 26.1 °C 19.7 °C 1015.1 hPa SSW 8.0 km/h 11.3 km/h 68% 0.0 mm CLR
10:25 26.2 °C 19.8 °C 1015.1 hPa SSE 8.0 km/h 11.3 km/h 68% 0.0 mm CLR
10:30 26.4 °C 19.8 °C 1015.1 hPa SSE 3.2 km/h 14.5 km/h 67% 0.0 mm CLR
10:35 26.4 °C 19.6 °C 1015.2 hPa SSE 3.2 km/h 12.9 km/h 66% 0.0 mm CLR
10:40 26.4 °C 19.6 °C 1015.2 hPa South 8.0 km/h 12.9 km/h 66% 0.0 mm CLR
10:45 26.6 °C 19.7 °C 1015.2 hPa South 8.0 km/h 9.7 km/h 66% 0.0 mm CLR
10:50 26.8 °C 19.7 °C 1015.1 hPa SW 4.7 km/h 7.4 km/h 65% 0.0 mm CLR
10:55 27.0 °C 19.6 °C 1015.1 hPa SSE 3.2 km/h 14.5 km/h 64% 0.0 mm CLR
11:00 26.9 °C 19.6 °C 1015.1 hPa SSW 4.8 km/h 8.0 km/h 64% 0.0 mm CLR
11:05 27.3 °C 19.6 °C 1015.0 hPa South 4.8 km/h 11.3 km/h 63% 0.0 mm CLR
11:10 27.4 °C 19.7 °C 1015.0 hPa SE 5.0 km/h 8.7 km/h 63% 0.0 mm CLR
11:15 27.6 °C 19.7 °C 1015.0 hPa SE 4.8 km/h 12.9 km/h 62% 0.0 mm CLR
11:20 27.4 °C 19.2 °C 1014.9 hPa ESE 8.0 km/h 12.9 km/h 61% 0.0 mm CLR
11:25 27.6 °C 19.7 °C 1014.9 hPa East 8.0 km/h 11.3 km/h 62% 0.0 mm CLR
11:30 27.8 °C 19.3 °C 1014.9 hPa SE 6.9 km/h 11.1 km/h 60% 0.0 mm CLR
11:35 27.8 °C 19.3 °C 1014.9 hPa ESE 8.0 km/h 14.5 km/h 60% 0.0 mm CLR
11:40 27.9 °C 19.7 °C 1014.9 hPa NNE 6.9 km/h 7.4 km/h 61% 0.0 mm CLR
11:45 28.2 °C 19.1 °C 1014.9 hPa ESE 8.0 km/h 12.9 km/h 58% 0.0 mm CLR
11:50 28.2 °C 19.2 °C 1015.0 hPa North 6.4 km/h 9.3 km/h 58% 0.0 mm CLR
11:55 28.2 °C 19.2 °C 1015.0 hPa NE 8.0 km/h 9.7 km/h 58% 0.0 mm CLR
12:00 28.4 °C 19.3 °C 1015.0 hPa NNE 4.8 km/h 11.3 km/h 58% 0.0 mm CLR
12:05 28.7 °C 19.6 °C 1014.9 hPa NNE 4.8 km/h 9.7 km/h 58% 0.0 mm CLR
12:10 28.7 °C 19.1 °C 1014.9 hPa NNW 4.8 km/h 9.7 km/h 56% 0.0 mm CLR
12:15 28.8 °C 19.2 °C 1014.9 hPa SE 5.0 km/h 7.4 km/h 56% 0.0 mm CLR
12:20 29.1 °C 18.8 °C 1014.8 hPa ENE 5.0 km/h 11.1 km/h 54% 0.0 mm CLR
12:25 29.1 °C 18.8 °C 1014.8 hPa NNE 4.8 km/h 11.3 km/h 54% 0.0 mm CLR
12:30 29.2 °C 18.6 °C 1014.8 hPa NNE 6.4 km/h 9.3 km/h 53% 0.0 mm CLR
12:35 29.3 °C 18.7 °C 1014.7 hPa NNE 8.0 km/h 11.3 km/h 53% 0.0 mm CLR
12:40 29.3 °C 19.1 °C 1014.7 hPa NE 8.0 km/h 19.3 km/h 54% 0.0 mm CLR
12:45 29.2 °C 19.2 °C 1014.7 hPa NNE 8.0 km/h 19.3 km/h 55% 0.0 mm CLR
12:50 29.4 °C 19.4 °C 1014.6 hPa NNW 7.6 km/h 10.3 km/h 55% 0.0 mm CLR
12:55 29.6 °C 19.3 °C 1014.6 hPa NNE 8.0 km/h 12.9 km/h 54% 0.0 mm CLR
13:00 29.6 °C 19.6 °C 1014.6 hPa NE 8.0 km/h 11.3 km/h 55% 0.0 mm CLR
13:05 29.7 °C 19.4 °C 1014.6 hPa NE 8.0 km/h 19.3 km/h 54% 0.0 mm CLR
13:10 29.8 °C 19.5 °C 1014.6 hPa NE 7.6 km/h 7.4 km/h 54% 0.0 mm CLR
13:15 30.0 °C 19.7 °C 1014.6 hPa ESE 8.0 km/h 16.1 km/h 54% 0.0 mm CLR
13:20 30.0 °C 19.7 °C 1014.4 hPa ENE 8.4 km/h 16.7 km/h 54% 0.0 mm CLR
13:25 30.1 °C 20.1 °C 1014.4 hPa NE 8.0 km/h 16.1 km/h 55% 0.0 mm CLR
13:30 30.3 °C 19.7 °C 1014.4 hPa NE 8.0 km/h 17.7 km/h 53% 0.0 mm CLR
13:35 30.3 °C 19.9 °C 1014.3 hPa NNE 8.0 km/h 14.5 km/h 54% 0.0 mm CLR
13:40 30.5 °C 20.2 °C 1014.3 hPa NNE 9.7 km/h 20.9 km/h 54% 0.0 mm CLR
13:45 30.6 °C 19.9 °C 1014.3 hPa NNE 9.7 km/h 20.9 km/h 53% 0.0 mm CLR
13:50 30.6 °C 19.9 °C 1014.1 hPa NE 9.7 km/h 16.1 km/h 53% 0.0 mm CLR
13:55 30.8 °C 19.8 °C 1014.1 hPa NNE 9.7 km/h 17.7 km/h 52% 0.0 mm CLR
14:00 31.0 °C 19.3 °C 1014.1 hPa NNE 11.3 km/h 20.9 km/h 50% 0.0 mm CLR
14:05 31.2 °C 19.6 °C 1014.0 hPa NE 11.3 km/h 24.1 km/h 50% 0.0 mm CLR
14:10 31.1 °C 19.4 °C 1014.0 hPa North 13.0 km/h 20.4 km/h 50% 0.0 mm CLR
14:15 31.2 °C 19.9 °C 1014.0 hPa NE 13.0 km/h 14.8 km/h 51% 0.0 mm CLR
14:20 31.3 °C 19.6 °C 1013.8 hPa NE 12.2 km/h 20.4 km/h 50% 0.0 mm CLR
14:25 31.3 °C 19.9 °C 1013.8 hPa NE 12.9 km/h 27.4 km/h 51% 0.0 mm CLR
14:30 31.3 °C 19.9 °C 1013.8 hPa NE 14.8 km/h 29.6 km/h 51% 0.0 mm CLR
14:35 31.4 °C 19.8 °C 1013.7 hPa NE 14.5 km/h 25.7 km/h 50% 0.0 mm CLR
14:40 31.7 °C 20.0 °C 1013.7 hPa NE 11.3 km/h 24.1 km/h 50% 0.0 mm CLR
14:45 31.8 °C 20.1 °C 1013.7 hPa NE 11.3 km/h 20.9 km/h 50% 0.0 mm CLR
14:50 31.7 °C 20.0 °C 1013.6 hPa ENE 13.0 km/h 14.8 km/h 50% 0.0 mm CLR
14:55 31.8 °C 20.1 °C 1013.6 hPa NE 12.9 km/h 27.4 km/h 50% 0.0 mm CLR
15:00 32.1 °C 20.1 °C 1013.6 hPa NE 12.9 km/h 24.1 km/h 49% 0.0 mm CLR
15:05 32.3 °C 19.9 °C 1013.5 hPa NE 12.9 km/h 20.9 km/h 48% 0.0 mm CLR
15:10 32.2 °C 19.4 °C 1013.5 hPa NNE 13.7 km/h 33.3 km/h 47% 0.0 mm CLR
15:15 32.0 °C 19.6 °C 1013.5 hPa NE 12.9 km/h 33.8 km/h 48% 0.0 mm CLR
15:20 32.1 °C 19.4 °C 1013.3 hPa NE 16.1 km/h 27.4 km/h 47% 0.0 mm CLR
15:25 32.2 °C 19.4 °C 1013.3 hPa ESE 16.4 km/h 20.4 km/h 47% 0.0 mm CLR
15:30 32.4 °C 19.7 °C 1013.3 hPa NNE 14.8 km/h 24.1 km/h 47% 0.0 mm CLR
15:35 32.4 °C 19.6 °C 1013.1 hPa NE 14.5 km/h 27.4 km/h 47% 0.0 mm CLR
15:40 32.2 °C 19.4 °C 1013.1 hPa NE 14.0 km/h 33.3 km/h 47% 0.0 mm CLR
15:45 32.3 °C 19.6 °C 1013.1 hPa NE 14.5 km/h 27.4 km/h 47% 0.0 mm CLR
15:50 32.3 °C 19.6 °C 1013.2 hPa ENE 18.0 km/h 20.4 km/h 47% 0.0 mm CLR
15:55 32.5 °C 19.7 °C 1013.2 hPa NE 19.3 km/h 24.1 km/h 47% 0.0 mm CLR
16:00 32.6 °C 19.5 °C 1013.2 hPa NE 14.5 km/h 27.4 km/h 46% 0.0 mm CLR
16:05 32.4 °C 19.6 °C 1012.9 hPa NE 14.5 km/h 33.8 km/h 47% 0.0 mm CLR
16:10 32.4 °C 19.3 °C 1012.9 hPa ENE 18.0 km/h 27.8 km/h 46% 0.0 mm CLR
16:15 32.5 °C 19.4 °C 1012.9 hPa NE 19.3 km/h 30.6 km/h 46% 0.0 mm CLR
16:20 32.4 °C 19.3 °C 1012.6 hPa NE 19.0 km/h 24.1 km/h 46% 0.0 mm CLR
16:25 32.6 °C 19.1 °C 1012.6 hPa NE 19.3 km/h 27.4 km/h 45% 0.0 mm CLR
16:30 32.6 °C 19.1 °C 1012.6 hPa NE 16.1 km/h 20.4 km/h 45% 0.0 mm CLR
16:35 32.8 °C 19.3 °C 1012.5 hPa NE 16.1 km/h 27.4 km/h 45% 0.0 mm CLR
16:40 32.7 °C 18.8 °C 1012.5 hPa NE 16.1 km/h 27.4 km/h 44% 0.0 mm CLR
16:45 32.6 °C 18.8 °C 1012.5 hPa NE 16.1 km/h 30.6 km/h 44% 0.0 mm CLR
16:50 32.6 °C 19.1 °C 1012.2 hPa East 18.0 km/h 25.9 km/h 45% 0.0 mm CLR
16:55 32.7 °C 18.8 °C 1012.2 hPa NE 19.3 km/h 25.7 km/h 44% 0.0 mm CLR
17:00 32.8 °C 18.9 °C 1012.2 hPa NE 16.1 km/h 32.2 km/h 44% 0.0 mm CLR
17:05 32.7 °C 18.8 °C 1012.1 hPa NE 16.1 km/h 25.7 km/h 44% 0.0 mm CLR
17:10 32.9 °C 19.1 °C 1012.1 hPa NE 16.1 km/h 27.4 km/h 44% 0.0 mm CLR
17:15 32.6 °C 18.7 °C 1012.1 hPa NE 16.1 km/h 33.8 km/h 44% 0.0 mm CLR
17:20 32.6 °C 18.8 °C 1011.9 hPa East 20.1 km/h 20.4 km/h 44% 0.0 mm CLR
17:25 32.8 °C 18.6 °C 1011.9 hPa NE 20.9 km/h 27.4 km/h 43% 0.0 mm CLR
17:30 32.6 °C 19.1 °C 1011.9 hPa NE 18.3 km/h 25.9 km/h 45% 0.0 mm CLR
17:35 32.6 °C 19.1 °C 1011.8 hPa NE 18.3 km/h 22.2 km/h 45% 0.0 mm CLR
17:40 32.5 °C 19.1 °C 1011.8 hPa NNE 19.0 km/h 24.1 km/h 45% 0.0 mm CLR
17:45 32.6 °C 19.2 °C 1011.8 hPa NE 19.3 km/h 30.6 km/h 45% 0.0 mm CLR
17:50 32.6 °C 19.1 °C 1011.5 hPa NNE 16.1 km/h 35.2 km/h 45% 0.0 mm CLR
17:55 32.5 °C 19.1 °C 1011.5 hPa NE 16.1 km/h 35.4 km/h 45% 0.0 mm CLR
18:00 32.5 °C 19.1 °C 1011.5 hPa NE 19.3 km/h 27.4 km/h 45% 0.0 mm CLR
18:05 32.4 °C 19.3 °C 1011.8 hPa NE 19.3 km/h 27.4 km/h 46% 0.0 mm CLR
18:10 32.4 °C 19.3 °C 1011.8 hPa NNE 18.3 km/h 33.3 km/h 46% 0.0 mm CLR
18:15 32.2 °C 19.4 °C 1011.8 hPa NE 19.3 km/h 32.2 km/h 47% 0.0 mm CLR
18:20 32.1 °C 19.7 °C 1011.6 hPa NNE 19.8 km/h 18.5 km/h 48% 0.0 mm CLR
18:25 32.2 °C 19.4 °C 1011.6 hPa NE 20.9 km/h 27.4 km/h 47% 0.0 mm CLR
18:30 32.2 °C 19.8 °C 1011.6 hPa NE 16.1 km/h 29.0 km/h 48% 0.0 mm CLR
18:35 32.2 °C 19.8 °C 1011.3 hPa NE 16.1 km/h 27.4 km/h 48% 0.0 mm CLR
18:40 32.1 °C 19.7 °C 1011.3 hPa NE 17.2 km/h 25.9 km/h 48% 0.0 mm CLR
18:45 31.9 °C 19.6 °C 1011.3 hPa NE 16.1 km/h 29.0 km/h 48% 0.0 mm CLR
18:50 31.9 °C 19.5 °C 1011.4 hPa ENE 16.4 km/h 27.8 km/h 48% 0.0 mm CLR
18:55 31.9 °C 19.5 °C 1011.4 hPa NE 16.1 km/h 25.7 km/h 48% 0.0 mm CLR
19:00 32.1 °C 19.7 °C 1011.4 hPa NE 14.5 km/h 25.7 km/h 48% 0.0 mm CLR
19:05 32.1 °C 19.7 °C 1011.3 hPa NE 14.5 km/h 25.7 km/h 48% 0.0 mm CLR
19:10 32.1 °C 19.7 °C 1011.3 hPa NE 14.5 km/h 25.7 km/h 48% 0.0 mm CLR
19:15 32.2 °C 19.8 °C 1011.3 hPa ENE 14.5 km/h 19.3 km/h 48% 0.0 mm CLR
19:20 32.1 °C 19.7 °C 1011.3 hPa ENE 11.1 km/h 16.7 km/h 48% 0.0 mm CLR
19:25 32.1 °C 19.0 °C 1011.3 hPa ENE 11.3 km/h 20.9 km/h 46% 0.0 mm CLR
19:30 32.1 °C 19.4 °C 1011.3 hPa East 10.3 km/h 10.0 km/h 47% 0.0 mm CLR
19:35 32.1 °C 19.4 °C 1011.2 hPa ESE 11.3 km/h 11.3 km/h 47% 0.0 mm CLR
19:40 31.9 °C 18.8 °C 1011.2 hPa ESE 8.7 km/h 20.4 km/h 46% 0.0 mm CLR
19:45 31.8 °C 19.1 °C 1011.2 hPa ESE 9.7 km/h 19.3 km/h 47% 0.0 mm CLR
19:50 31.7 °C 19.0 °C 1011.3 hPa ESE 11.1 km/h 17.2 km/h 47% 0.0 mm CLR
19:55 31.6 °C 18.9 °C 1011.3 hPa ESE 11.3 km/h 17.7 km/h 47% 0.0 mm CLR
20:00 31.6 °C 19.2 °C 1011.3 hPa SE 11.3 km/h 24.1 km/h 48% 0.0 mm CLR
20:05 31.3 °C 19.3 °C 1011.5 hPa SE 11.3 km/h 24.1 km/h 49% 0.0 mm CLR
20:10 31.1 °C 19.4 °C 1011.5 hPa SE 14.5 km/h 27.4 km/h 50% 0.0 mm CLR
20:15 30.8 °C 19.5 °C 1011.5 hPa ESE 14.5 km/h 22.5 km/h 51% 0.0 mm CLR
20:20 30.6 °C 19.3 °C 1011.7 hPa ESE 15.6 km/h 24.1 km/h 51% 0.0 mm CLR
20:25 30.5 °C 19.2 °C 1011.7 hPa ESE 14.5 km/h 24.1 km/h 51% 0.0 mm CLR
20:30 30.3 °C 19.3 °C 1011.7 hPa SE 16.1 km/h 18.5 km/h 52% 0.0 mm CLR
20:35 30.2 °C 19.3 °C 1012.0 hPa ESE 16.1 km/h 32.2 km/h 52% 0.0 mm CLR
20:40 29.9 °C 19.3 °C 1012.0 hPa SE 16.1 km/h 35.4 km/h 53% 0.0 mm CLR
20:45 29.8 °C 19.5 °C 1012.0 hPa SE 16.1 km/h 27.4 km/h 54% 0.0 mm CLR
20:50 29.6 °C 19.3 °C 1012.6 hPa ESE 16.4 km/h 25.9 km/h 54% 0.0 mm CLR
20:55 29.4 °C 19.7 °C 1012.6 hPa ESE 16.1 km/h 29.0 km/h 56% 0.0 mm CLR
21:00 29.1 °C 20.0 °C 1012.6 hPa ESE 19.3 km/h 32.2 km/h 58% 0.0 mm CLR
21:05 28.8 °C 20.3 °C 1012.6 hPa ESE 19.3 km/h 24.1 km/h 60% 0.0 mm CLR
21:10 28.8 °C 20.6 °C 1012.6 hPa ESE 14.5 km/h 19.3 km/h 61% 0.0 mm CLR
21:15 28.7 °C 20.7 °C 1012.6 hPa East 14.0 km/h 18.5 km/h 62% 0.0 mm CLR
21:20 28.6 °C 21.1 °C 1012.7 hPa ESE 12.2 km/h 16.7 km/h 64% 0.0 mm CLR
21:25 28.6 °C 21.3 °C 1012.7 hPa ESE 12.9 km/h 20.9 km/h 65% 0.0 mm CLR
21:30 28.3 °C 21.3 °C 1012.7 hPa ESE 12.2 km/h 14.8 km/h 66% 0.0 mm CLR
21:35 28.2 °C 21.3 °C 1012.9 hPa ESE 12.9 km/h 22.5 km/h 66% 0.0 mm CLR
21:40 28.1 °C 21.4 °C 1012.9 hPa ESE 10.3 km/h 18.5 km/h 67% 0.0 mm CLR
21:43 28.0 °C 21.6 °C 1012.9 hPa ESE 10.3 km/h 16.7 km/h 68% 0.0 mm CLR
22:00 27.7 °C 21.5 °C 1012.9 hPa ESE 10.0 km/h 16.7 km/h 69% 0.0 mm CLR
22:05 27.7 °C 21.5 °C 1012.8 hPa ENE 10.0 km/h 13.0 km/h 69% 0.0 mm CLR
22:10 27.7 °C 21.5 °C 1012.8 hPa ESE 8.4 km/h 11.1 km/h 69% 0.0 mm CLR
22:15 27.6 °C 21.4 °C 1012.8 hPa ESE 8.4 km/h 9.3 km/h 69% 0.0 mm CLR
22:20 27.7 °C 21.5 °C 1013.1 hPa NE 6.9 km/h 9.3 km/h 69% 0.0 mm CLR
22:25 27.7 °C 21.5 °C 1013.1 hPa ESE 6.9 km/h 8.7 km/h 69% 0.0 mm CLR
22:30 27.8 °C 21.6 °C 1013.1 hPa East 5.0 km/h 9.3 km/h 69% 0.0 mm CLR
22:35 27.7 °C 21.5 °C 1013.4 hPa ESE 5.0 km/h 3.7 km/h 69% 0.0 mm CLR
22:40 27.7 °C 21.5 °C 1013.4 hPa NE 3.9 km/h 7.4 km/h 69% 0.0 mm CLR
22:45 27.6 °C 21.4 °C 1013.4 hPa NE 3.9 km/h 5.6 km/h 69% 0.0 mm CLR
22:50 27.4 °C 21.4 °C 1013.6 hPa ENE 4.7 km/h 7.4 km/h 70% 0.0 mm CLR
22:55 27.3 °C 21.3 °C 1013.6 hPa NE 4.7 km/h 7.4 km/h 70% 0.0 mm CLR
23:00 27.3 °C 21.6 °C 1013.6 hPa NE 5.0 km/h 7.4 km/h 71% 0.0 mm CLR
23:05 27.2 °C 21.5 °C 1013.7 hPa NE 5.0 km/h 7.6 km/h 71% 0.0 mm CLR
23:10 27.2 °C 21.5 °C 1013.7 hPa NNE 5.8 km/h 9.3 km/h 71% 0.0 mm CLR
23:15 27.0 °C 21.5 °C 1013.7 hPa NNE 5.8 km/h 13.0 km/h 72% 0.0 mm CLR
23:20 26.9 °C 21.4 °C 1013.7 hPa NNE 8.4 km/h 9.3 km/h 72% 0.0 mm CLR
23:25 26.8 °C 21.3 °C 1013.7 hPa NNE 8.4 km/h 7.4 km/h 72% 0.0 mm CLR
23:30 26.8 °C 21.3 °C 1013.7 hPa NE 5.0 km/h 7.4 km/h 72% 0.0 mm CLR
23:35 26.8 °C 21.3 °C 1013.9 hPa NE 5.0 km/h 6.4 km/h 72% 0.0 mm CLR
23:40 26.8 °C 21.3 °C 1013.9 hPa ESE 5.0 km/h 5.6 km/h 72% 0.0 mm CLR
23:45 26.9 °C 21.4 °C 1013.9 hPa ESE 5.0 km/h 7.4 km/h 72% 0.0 mm CLR
23:50 26.9 °C 21.4 °C 1014.0 hPa SE 5.8 km/h 11.1 km/h 72% 0.0 mm CLR
23:55 26.8 °C 21.6 °C 1014.0 hPa SE 5.8 km/h 7.4 km/h 73% 0.0 mm CLR
Murcia-Puente Tocinos, España
Compliments of Weather Underground - 2.75 mb

La estación de MeteoMurcia.com, publica sus datos en los siguientes proyectos:

Weather Underground PWS IMURCIAP2 Meteoclimatic www.awekas.at

W3Counter
Web Analytics